TimeCST,TemperatureF,Dew PointF,Humidity,Sea Level PressureIn,VisibilityMPH,Wind Direction,Wind SpeedMPH,Gust SpeedMPH,PrecipitationIn,Events,Conditions,WindDirDegrees,DateUTC
12:53 AM,30.0,26.1,85,29.89,5.0,SE,16.1,-,0.00,,Overcast,140,2013-02-10 06:53:00
1:28 AM,30.2,26.6,86,29.84,4.0,SE,16.1,-,0.01,Snow,Light Snow,130,2013-02-10 07:28:00
1:53 AM,30.0,27.0,88,29.85,4.0,SE,17.3,-,0.01,,Overcast,130,2013-02-10 07:53:00
2:01 AM,30.2,26.6,86,29.81,4.0,ESE,17.3,-,0.01,Rain,Light Freezing Rain,120,2013-02-10 08:01:00
2:21 AM,30.2,28.4,93,29.81,4.0,SE,15.0,23.0,0.01,Rain,Light Freezing Rain,130,2013-02-10 08:21:00
2:46 AM,30.2,28.4,93,29.80,2.5,SE,15.0,-,0.02,Rain,Light Freezing Rain,130,2013-02-10 08:46:00
2:53 AM,30.9,28.0,89,29.81,3.0,ESE,15.0,-,0.02,Rain,Light Freezing Rain,120,2013-02-10 08:53:00
3:16 AM,30.2,28.4,93,29.78,2.5,SE,18.4,24.2,0.02,Rain,Light Freezing Rain,130,2013-02-10 09:16:00
3:30 AM,30.2,28.4,93,29.77,3.0,SE,15.0,23.0,0.02,Rain,Light Freezing Rain,130,2013-02-10 09:30:00
3:53 AM,30.9,28.9,92,29.77,3.0,SE,16.1,-,0.02,Rain,Light Freezing Rain,130,2013-02-10 09:53:00
4:06 AM,30.2,28.4,93,29.72,3.0,SE,18.4,24.2,0.00,,Overcast,130,2013-02-10 10:06:00
4:28 AM,30.2,28.4,93,29.68,2.5,ESE,18.4,-,0.00,,Overcast,120,2013-02-10 10:28:00
4:53 AM,30.9,28.9,92,29.71,2.5,SE,17.3,25.3,0.00,,Overcast,130,2013-02-10 10:53:00
5:53 AM,30.9,28.9,92,29.66,1.8,ESE,13.8,25.3,N/A,,Overcast,120,2013-02-10 11:53:00
6:41 AM,30.2,30.2,100,29.57,1.0,ESE,18.4,27.6,N/A,,Overcast,120,2013-02-10 12:41:00
6:53 AM,32.0,30.0,92,29.60,1.5,ESE,17.3,26.5,N/A,,Overcast,120,2013-02-10 12:53:00
7:03 AM,32.0,30.2,93,29.59,2.0,SE,15.0,27.6,N/A,,Overcast,130,2013-02-10 13:03:00
7:14 AM,32.0,30.2,93,29.58,2.0,SE,17.3,24.2,0.00,Rain,Light Freezing Rain,130,2013-02-10 13:14:00
7:53 AM,32.0,30.0,92,29.61,2.0,SE,20.7,29.9,0.03,Rain,Light Freezing Rain,130,2013-02-10 13:53:00
8:02 AM,32.0,30.2,93,29.55,1.8,ESE,19.6,29.9,0.03,Rain,Light Freezing Rain,120,2013-02-10 14:02:00
8:14 AM,32.0,30.2,93,29.53,1.5,ESE,19.6,26.5,0.06,Rain,Light Freezing Rain,120,2013-02-10 14:14:00
8:24 AM,33.8,30.2,87,29.52,2.5,ESE,21.9,29.9,0.07,Rain,Light Freezing Rain,120,2013-02-10 14:24:00
8:31 AM,33.8,30.2,87,29.51,3.0,ESE,23.0,31.1,0.07,Rain,Light Rain,120,2013-02-10 14:31:00
8:53 AM,33.1,30.9,92,29.52,4.0,SE,19.6,31.1,0.07,Rain,Light Rain,130,2013-02-10 14:53:00
9:09 AM,33.8,30.2,87,29.46,2.5,ESE,18.4,28.8,0.03,Rain,Light Rain,120,2013-02-10 15:09:00
9:17 AM,33.8,30.2,87,29.47,5.0,SE,19.6,-,0.03,Rain,Light Rain,130,2013-02-10 15:17:00
9:29 AM,33.8,30.2,87,29.47,5.0,SE,20.7,-,0.03,Rain,Light Rain,130,2013-02-10 15:29:00
9:43 AM,33.8,30.2,87,29.46,1.8,SE,17.3,25.3,0.06,Rain,Rain,140,2013-02-10 15:43:00
9:53 AM,34.0,32.0,92,29.48,1.8,SE,17.3,24.2,0.10,Rain,Light Rain,140,2013-02-10 15:53:00
9:59 AM,33.8,32.0,93,29.46,3.0,SE,15.0,25.3,0.00,Rain,Light Rain,140,2013-02-10 15:59:00
10:10 AM,33.8,32.0,93,29.45,1.8,SE,16.1,-,0.02,Rain,Light Rain,140,2013-02-10 16:10:00
10:53 AM,34.0,33.1,96,29.44,3.0,SSE,17.3,24.2,0.04,Rain,Light Rain,150,2013-02-10 16:53:00
11:53 AM,35.1,33.1,92,29.39,2.0,SE,16.1,-,0.01,Rain,Light Rain,130,2013-02-10 17:53:00
12:00 PM,35.6,33.8,93,29.37,2.5,SE,15.0,23.0,0.00,,Overcast,140,2013-02-10 18:00:00
12:07 PM,35.6,33.8,93,29.37,5.0,SE,13.8,23.0,0.00,,Overcast,140,2013-02-10 18:07:00
12:49 PM,35.6,33.8,93,29.34,1.8,SE,13.8,-,0.00,,Overcast,140,2013-02-10 18:49:00
12:50 PM,35.1,33.1,92,29.36,1.8,SE,13.8,-,0.00,,Overcast,140,2013-02-10 18:50:00
1:11 PM,35.6,33.8,93,29.33,0.5,SSE,11.5,-,N/A,Fog,Fog,150,2013-02-10 19:11:00
1:24 PM,35.6,33.8,93,29.32,0.2,SE,12.7,-,N/A,Fog,Fog,140,2013-02-10 19:24:00
1:53 PM,36.0,34.0,93,29.31,0.2,SE,13.8,-,N/A,Fog,Fog,140,2013-02-10 19:53:00
2:53 PM,36.0,35.1,97,29.28,0.2,SE,11.5,-,N/A,Fog,Fog,130,2013-02-10 20:53:00
3:37 PM,37.4,35.6,93,29.25,0.8,SE,13.8,-,0.02,Rain,Light Rain,140,2013-02-10 21:37:00
3:48 PM,37.4,35.6,93,29.25,0.2,SSE,11.5,-,0.03,Fog-Rain,Light Rain,150,2013-02-10 21:48:00
3:53 PM,37.0,36.0,96,29.27,0.5,SSE,13.8,-,0.03,Fog-Rain,Light Rain,150,2013-02-10 21:53:00
4:07 PM,37.4,35.6,93,29.26,1.5,South,11.5,21.9,0.02,Rain,Light Rain,180,2013-02-10 22:07:00
4:13 PM,37.4,37.4,100,29.26,3.0,South,15.0,21.9,0.02,Rain,Light Rain,190,2013-02-10 22:13:00
4:22 PM,37.4,35.6,93,29.26,6.0,South,12.7,-,0.02,Rain,Light Rain,190,2013-02-10 22:22:00
4:35 PM,37.4,35.6,93,29.26,6.0,South,12.7,-,0.02,,Overcast,190,2013-02-10 22:35:00
4:53 PM,37.0,35.1,93,29.28,8.0,SSW,13.8,-,0.02,Rain,Light Rain,210,2013-02-10 22:53:00
5:24 PM,35.6,33.8,93,29.27,9.0,SW,10.4,20.7,0.00,Rain,Light Rain,220,2013-02-10 23:24:00
5:53 PM,35.1,32.0,89,29.29,10.0,SW,13.8,-,0.00,Rain,Light Rain,220,2013-02-10 23:53:00
6:04 PM,35.6,32.0,87,29.28,8.0,SSW,13.8,-,0.00,Rain,Light Rain,210,2013-02-11 00:04:00
6:18 PM,35.6,32.0,87,29.28,8.0,SSW,13.8,-,0.01,Rain,Light Rain,210,2013-02-11 00:18:00
6:25 PM,35.6,32.0,87,29.28,9.0,SW,12.7,-,0.01,Rain,Light Rain,220,2013-02-11 00:25:00
6:53 PM,34.0,30.9,89,29.30,5.0,SSW,10.4,-,0.01,Snow,Light Snow,210,2013-02-11 00:53:00
7:49 PM,33.8,30.2,87,29.27,5.0,SSW,8.1,-,0.00,,Overcast,200,2013-02-11 01:49:00
7:53 PM,33.1,30.9,92,29.29,5.0,SSW,9.2,-,0.00,Snow,Light Snow,200,2013-02-11 01:53:00
8:53 PM,34.0,32.0,92,29.29,9.0,SW,11.5,-,0.00,,Overcast,230,2013-02-11 02:53:00
9:05 PM,33.8,32.0,93,29.28,10.0,SW,13.8,-,0.00,Rain,Light Rain,230,2013-02-11 03:05:00
9:24 PM,33.8,30.2,87,29.28,10.0,WSW,18.4,-,0.00,,Overcast,240,2013-02-11 03:24:00
9:48 PM,33.8,30.2,87,29.29,5.0,WSW,13.8,-,0.00,Rain,Light Rain,250,2013-02-11 03:48:00
9:53 PM,33.1,30.9,92,29.31,5.0,WSW,15.0,-,0.00,Rain,Light Rain,250,2013-02-11 03:53:00
10:37 PM,32.0,28.4,87,29.33,7.0,West,31.1,35.7,0.01,,Overcast,280,2013-02-11 04:37:00
10:53 PM,30.9,28.0,89,29.37,6.0,West,26.5,36.8,0.01,,Overcast,280,2013-02-11 04:53:00
11:06 PM,30.2,26.6,86,29.36,2.5,West,25.3,33.4,0.00,Snow,Light Snow,280,2013-02-11 05:06:00
11:14 PM,30.2,26.6,86,29.36,1.0,West,26.5,35.7,0.00,Snow,Light Snow,280,2013-02-11 05:14:00
11:44 PM,28.4,26.6,93,29.39,1.0,West,26.5,34.5,0.00,Snow,Light Snow,280,2013-02-11 05:44:00
11:53 PM,28.9,25.0,85,29.41,1.0,West,25.3,33.4,0.00,Snow,Light Snow,280,2013-02-11 05:53:00